Regional Weather Roundup
Issued by NWS

Home | Current Version | Previous Version | Text Only | Print | Product List | Glossary Off
Versions: 1 2 3 4 5 6 7 8 9 10 11 12 13 14 15 16 17 18 19 20 21 22 23 24 25 26 27

000
ASUS45 KCYS 241710
RWRWY

WYOMING REGIONAL WEATHER ROUNDUP
NATIONAL WEATHER SERVICE CHEYENNE WY
1100 AM MDT FRI MAR 24 2017

NOTE:  "FAIR" INDICATES FEW OR NO CLOUDS BELOW 12,000 FEET
WITH NO SIGNIFICANT WEATHER AND/OR OBSTRUCTIONS TO VISIBILITY.

WYZ001-241800-
YELLOWSTONE NATIONAL PARK

CITY           SKY/WX    TMP DP  RH WIND       PRES   REMARKS
LK YELLOWSTONE   N/A     31  23  72 CALM      30.20S
W YELLOWSTONE  NOT AVBL

$$
WYZ002>013-054>058-071-098>099-241800-
NORTHERN WYOMING

CITY           SKY/WX    TMP DP  RH WIND       PRES   REMARKS
JACKSON        SUNNY     36  27  69 CALM      30.21S
CODY           FAIR      49  25  39 S15       30.11S
GREYBULL       FAIR      48  38  68 SE10      30.13F
WORLAND        FAIR      49  39  68 SE8       30.14S
SHERIDAN       FAIR      53  35  50 SE14      30.10S
BUFFALO        FAIR      51  32  48 SE15      30.14R
GILLETTE         N/A     49  32  52 CALM      30.13F
HULETT         FAIR      48  32  53 CALM      30.15S
NEWCASTLE      FAIR      52  23  32 NW9G24    30.15R

$$
WYZ014>020-022>026-101>103-241800-
CENTRAL WYOMING

CITY           SKY/WX    TMP DP  RH WIND       PRES   REMARKS
BIG PINEY      FAIR      34  26  72 CALM      30.24R
PINEDALE       FAIR      34  30  86 CALM      30.24R
DUBOIS         FAIR      34  23  64 CALM      30.17R
LANDER         FAIR      48  33  56 E7        30.14F
RIVERTON       FAIR      44  32  62 VRB5      30.17S
CASPER         FAIR      46  31  55 VRB5      30.17S
DOUGLAS        FAIR      50  33  52 NW10      30.16F

$$
WYZ021-027>030-104>119-241800-
SOUTHERN WYOMING

CITY           SKY/WX    TMP DP  RH WIND       PRES   REMARKS
EVANSTON       FAIR      35  29  78 SW7       30.23S WCI  29
KEMMERER         N/A     34  25  69 CALM      30.24R
FORT BRIDGER   FAIR      41  27  57 W7        30.26S
ROCK SPRINGS   PTSUNNY   41  33  73 W9        30.23R
DIXON            N/A     45  26  46 NE9G17    30.22R
RAWLINS        FAIR      44  25  47 CALM      30.19S
SARATOGA       FAIR      39  28  65 NW6       30.20S WCI  35
LARAMIE        FLURRIES  35  31  85 N15       30.16R WCI  25
CHEYENNE       PTSUNNY   42  32  67 N25G33    30.11R
TORRINGTON     FAIR      52  35  52 N15G25    30.09F
PINE BLUFFS    CLOUDY    41  36  81 N25G33    30.09R

$$




USA.gov is the U.S. government's official web portal to all federal, state and local government web resources and services.